SCP
0 0 0 0 0 0 0 0 0 0 0 0 0 0 0 0 0 0 0 0 0 0 0 0 0 0 0 0 0 0 0 0 0 0 0 0 0 0 0 -0 0 0 0 0 0 0 0 0 0 0 0 0 0 0
0 0 0 0 0 0 0 0 0 0 0 0 0 0 0 0 0 0 0 0 0 0 0 0 0 -0 -0 0 0 0 0 0 0 0 0 0 0 0 0 0 -0 0 0 -0 0 0 0 0 0 0 0 0 0 0
0 0 0 0 0 0 0 0 0 0 0 0 0 0 0 0 0 0 0 0 0 0 0 0 0 0 0 0 0 0 0 0 0 -0 -0 0 0 0 -0 -0 0 -0 0 0 -0 0 0 0 -0 0 0 0 0 0
0 0 0 0 0 0 0 0 0 0 0 0 0 0 0 0 0 0 0 0 0 0 0 0 0 0 0 0 0 0 -0 -0 -0 -0 -0 0 0 0 -0 0 -0 0 0 0 0 0 -0 0 0 0 0 0 -0 -0
0 0 0 0 0 0 0 0 0 0 0 0 0 0 0 0 0 0 0 0 0 0 0 0 0 0 0 0 0 0 0 -0 -0 0 0 0 0 0 -0 -0 0 0 0 0 0 0 0 0 0 0 -0 0 0 0
0 0 0 0 0 0 0 0 0 0 0 0 0 0 0 0 0 0 0 0 0 0 0 0 0 0 0 0 0 0 0 0 0 0 0 0 0 0 0 0 0 0 0 0 0 0 0 0 0 0 0 -0 -0 0
0 0 0 0 0 0 0 0 0 0 0 0 0 0 0 0 0 0 0 0 0 0 0 0 0 0 0 0 0 0 0 0 0 0 0 0 0 0 0 0 0 -0 -0 0 0 0 0 0 -0 -0 0 0 -0 -0
0 0 0 0 0 0 0 0 0 0 0 0 0 0 0 0 0 0 0 0 0 0 0 0 0 0 0 0 0 0 0 0 0 0 -0 0 0 0 0 0 -0 -0 0 0 0 0 0 -0 0 0 0 -0 0 -0
0 0 0 0 0 0 0 0 0 0 0 0 0 0 0 0 0 0 0 0 0 0 0 0 0 0 0 0 0 0 0 0 0 -0 0 0 0 0 0 0 -0 0 0 0 0 0 0 0 0 -0 -0 -0 0 0
0 0 0 0 0 0 0 0 0 0 0 0 0 0 0 0 0 0 0 0 0 0 0 0 0 0 0 0 0 0 0 0 -0 -0 0 0 0 -0 0 -0 -0 0 0 0 0 -0 -0 -0 0 -0 -0 0 0 0
0 0 0 0 0 0 0 0 0 0 0 0 0 0 0 0 0 0 0 0 0 0 0 0 -0 0 0 0 0 0 -0 -0 -0 -0 -0 0 0 0 0 0 0 0 0 0 0 0 0 -0 0 0 -0 0 0 0
0 0 0 0 0 0 0 -0 -0 0 0 0 0 0 0 0 0 0 0 0 0 0 0 0 0 0 0 0 0 -0 -0 -0 -0 -0 0 0 0 -0 -0 -0 0 -0 0 0 0 0 -0 -0 0 0 0 0 0 0
0 0 0 0 0 -0 -0 -0 0 0 0 0 0 0 0 0 0 0 0 0 0 0 0 0 0 0 0 -0 -0 -0 -0 -0 -0 -0 -0 0 -0 -0 -0 -0 0 0 0 0 0 0 -0 0 -0 -0 -0 -0 0 0
0 0 0 0 0 -0 -0 -0 -0 0 0 0 0 0 0 0 0 0 0 0 0 0 0 0 -0 0 0 -0 -0 -0 -0 -0 0 0 0 -0 -0 0 -0 0 0 0 0 0 0 0 -0 0 -0 -0 0 -0 0 -0
0 0 0 0 -0 -0 -0 -0 -0 0 0 0 0 0 0 0 -0 0 0 0 0 0 0 0 0 0 0 0 -0 -0 0 0 0 0 -0 -0 -0 0 0 -0 0 0 0 0 0 0 -0 -0 0 0 0 0 0 -0
0 0 0 -0 -0 -0 -0 0 0 0 0 0 0 0 0 0 0 0 0 0 0 0 0 0 0 0 0 0 -0 0 0 0 0 -0 -0 -0 -0 0 0 0 0 0 0 0 0 -0 -0 -0 0 -0 0 0 0 -0
0 0 -0 -0 -0 -0 0 0 0 0 0 0 0 0 0 0 -0 0 -0 0 0 0 0 0 0 0 0 0 0 0 0 0 -0 -0 -0 -0 -0 -0 0 0 0 0 0 0 -0 -0 -0 -0 -0 -0 0 0 0 -0
0 0 -0 -0 0 0 0 0 0 0 0 0 0 0 0 0 0 0 0 0 0 0 0 0 0 0 0 -0 -0 0 0 -0 0 0 -0 -0 -0 -0 0 -0 0 0 0 0 -0 -0 -0 -0 -0 -0 0 0 0 0
-0 -0 -0 -0 0 0 0 0 0 0 0 0 0 0 -0 0 0 0 0 0 0 0 0 0 0 0 0 0 0 0 0 0 0 0 0 0 0 0 0 0 -0 -0 0 -0 0 -0 -0 -0 -0 -0 -0 -0 0 0
-0 -0 -0 0 0 0 0 0 0 0 0 0 0 0 0 0 0 0 0 0 0 0 0 0 0 0 0 0 0 0 0 0 0 0 0 0 0 0 0 0 0 -0 -0 -0 0 0 -0 -0 -0 -0 -0 -0 -0 0
0 0 0 0 0 0 0 0 0 0 0 0 0 0 0 0 0 0 0 0 0 0 0 0 0 0 0 0 0 0 0 0 0 0 0 0 0 0 0 0 0 0 -0 -0 0 0 0 0 0 -0 -0 -0 -0 0
0 0 0 0 0 0 0 0 0 0 0 0 0 0 0 0 0 0 0 0 0 0 0 0 0 0 0 0 0 0 0 0 0 0 0 0 0 0 0 0 0 0 0 0 -0 0 0 0 0 0 -0 -0 -0 -0
0 0 0 0 0 0 0 0 0 0 0 0 0 0 0 0 0 0 0 0 0 0 0 0 0 0 0 0 0 0 0 0 0 0 0 0 0 0 0 0 0 0 0 0 0 0 0 -0 0 0 0 -0 -0 -0
0 0 0 0 0 0 0 0 0 0 0 0 0 0 0 0 0 0 0 0 0 0 0 0 0 0 0 0 0 0 0 0 0 0 0 0 0 0 0 0 0 0 0 0 0 0 0 0 0 0 0 0 0 -0
0 0 0 0 0 0 0 0 0 0 0 0 0 0 0 0 0 0 0 0 0 0 0 0 0 0 0 0 0 0 0 0 0 0 0 0 0 0 0 0 0 0 0 0 0 0 0 0 0 0 0 0 0 -0
0 0 0 0 0 0 0 0 0 0 0 0 0 0 0 0 0 0 0 0 0 0 0 0 0 0 0 0 0 0 0 0 0 0 0 0 0 0 0 0 0 0 0 0 0 0 0 0 0 0 0 0 0 0
0 0 0 0 0 0 0 0 0 0 0 0 0 0 0 0 0 0 0 0 0 0 0 0 0 0 0 0 0 0 0 0 0 0 0 0 0 0 0 0 0 0 0 0 0 0 0 0 0 0 0 0 0 0
0 0 0 0 0 0 0 0 0 0 0 0 0 0 0 0 0 0 0 0 0 0 0 0 0 0 0 0 0 0 0 0 0 0 0 0 0 0 0 0 0 -0 -0 -0 -0 0 0 0 0 0 0 0 0 0
0 0 0 0 0 0 0 0 0 0 0 0 0 0 0 0 0 0 0 0 0 0 0 0 0 0 0 0 0 0 0 0 0 0 0 0 0 0 0 0 0 0 -0 -0 -0 -0 -0 -0 -0 -0 0 0 0 0
0 0 0 0 0 0 0 0 0 0 0 0 0 0 0 0 0 0 0 0 0 0 0 0 0 0 0 0 0 0 0 0 0 0 0 0 0 0 0 0 0 0 0 -0 -0 -0 -0 -0 -0 -0 -0 -0 -0 -0
0 0 0 0 0 0 0 0 0 0 0 0 0 0 0 0 0 0 0 0 0 0 0 0 0 0 0 0 0 0 0 0 0 0 0 0 0 0 0 0 0 0 0 0 0 0 0 0 -0 -0 -0 -0 -0 -0
0 0 0 0 0 0 0 0 0 0 0 0 0 0 0 0 0 0 0 0 0 0 0 0 0 0 0 0 0 0 0 0 0 0 0 0 0 0 0 0 0 0 0 0 0 0 0 0 0 0 0 0 -0 -0
0 0 0 0 0 0 0 0 0 0 0 0 0 0 0 0 0 0 0 0 0 0 0 0 0 0 0 0 0 0 0 0 0 0 0 0 0 0 0 0 0 0 0 0 0 0 0 0 0 0 0 0 0 0
Wind_Speed_500mb
44 41 42 45 49 51 62 66 60 61 57 53 49 47 40 37 33 29 16 25 14 24 48 38 27 31 26 18 13 15 12 9 9 6 5 5 9 7 12 15 20 18 9 8 10 10 12 20 30 18 28 55 56 57
46 43 37 34 38 41 46 54 61 62 57 55 45 44 43 34 33 34 23 16 16 22 31 49 47 39 34 25 18 7 9 9 11 6 6 7 6 9 17 9 8 7 4 9 11 15 43 38 38 53 52 55 56 53
52 46 43 43 38 38 36 44 48 64 61 54 44 41 41 31 37 35 32 15 15 20 36 22 13 13 15 20 19 9 6 8 6 10 11 5 9 5 8 9 16 17 27 16 22 12 31 42 62 36 52 56 58 58
55 51 52 49 44 42 42 44 43 53 61 56 40 38 36 30 43 35 35 14 16 14 11 4 13 13 13 17 20 24 16 11 14 19 12 6 7 6 9 16 21 19 21 22 31 32 61 20 54 61 63 72 75 66
56 54 48 42 44 43 45 47 44 46 52 50 34 33 30 26 40 34 33 26 22 15 11 28 41 33 25 21 20 20 22 17 13 8 8 9 10 8 12 12 6 9 5 6 10 50 42 49 68 84 80 72 77 78
58 47 53 45 46 47 46 47 44 40 45 40 29 27 24 22 40 28 10 6 25 28 10 8 11 14 22 17 15 18 19 13 9 10 12 12 15 6 7 6 11 20 35 35 16 49 68 73 61 65 73 84 81 72
50 47 49 49 47 44 41 43 42 33 42 35 26 22 26 32 44 22 10 9 20 26 7 12 9 18 26 19 15 13 14 8 13 9 12 18 7 11 3 5 29 44 47 54 42 42 47 56 70 75 73 71 74 71
44 47 48 48 45 42 43 42 35 29 41 28 17 20 18 32 32 32 32 28 25 20 9 7 10 12 26 20 18 18 15 13 14 9 8 8 5 6 7 13 44 44 53 35 37 55 58 67 66 77 71 80 66 65
50 47 48 47 47 46 46 39 28 39 35 18 18 19 24 25 15 20 12 16 30 15 6 8 6 4 15 26 7 20 16 8 12 7 9 5 4 4 17 33 40 48 40 56 60 57 54 59 71 73 83 76 67 68
41 44 44 42 44 43 43 32 34 40 28 29 26 13 10 12 17 21 18 23 23 14 15 11 28 13 8 5 8 17 16 9 7 9 10 4 4 10 24 30 39 41 41 42 50 53 62 64 67 68 80 71 65 64
41 41 41 44 43 39 32 35 45 43 40 41 18 11 13 25 27 8 9 12 16 9 14 20 32 14 11 10 9 16 5 6 5 5 4 6 6 15 31 38 37 35 35 37 42 55 56 62 65 69 87 74 67 65
41 39 36 36 38 31 40 47 58 55 38 33 20 17 21 10 7 7 8 9 11 8 18 21 21 18 1 2 5 5 6 6 4 10 5 4 8 26 34 40 41 43 40 41 42 53 55 59 56 69 75 73 69 68
37 38 35 36 33 41 43 58 54 49 42 33 9 9 10 9 8 11 12 9 7 11 17 19 11 10 9 11 10 7 9 6 7 6 3 6 21 28 34 39 46 46 38 36 40 46 49 56 55 71 72 73 72 72
38 37 34 32 38 44 53 62 51 51 39 10 13 11 10 11 11 11 16 11 11 11 21 21 18 11 8 10 4 7 4 4 3 6 5 9 21 27 33 36 41 48 39 37 38 42 46 52 56 57 74 76 78 75
30 33 28 34 47 51 66 58 47 57 12 11 11 10 15 17 19 28 20 11 12 14 14 9 5 8 3 2 6 6 4 6 2 5 4 11 18 24 33 39 44 43 40 37 37 41 46 51 56 57 62 66 82 74
26 17 37 49 54 67 63 57 53 46 8 8 10 7 11 14 18 18 17 16 16 15 10 5 5 5 2 2 5 6 5 4 5 2 7 12 17 23 29 37 44 43 38 37 36 38 41 49 51 54 57 63 69 81
35 26 52 58 68 64 61 57 31 12 11 9 11 24 15 19 22 22 19 18 16 16 9 5 9 6 5 3 4 2 2 5 2 3 6 11 18 22 27 31 38 40 41 39 40 39 37 42 45 51 62 67 61 81
53 48 63 79 78 68 59 19 12 13 11 16 10 18 22 16 19 19 12 14 13 8 4 3 5 8 7 4 4 6 6 11 9 2 6 10 16 18 21 28 31 33 41 47 42 40 34 42 44 46 53 60 56 69
54 65 80 79 74 42 13 18 11 9 16 14 18 14 24 20 12 17 15 11 5 2 3 6 4 4 6 3 9 13 10 4 4 3 5 4 14 18 20 23 26 29 31 41 45 49 38 35 37 42 52 53 59 63
55 69 77 72 64 11 9 8 14 8 10 13 20 22 24 26 21 15 14 12 11 10 8 6 1 5 4 13 15 8 8 4 4 4 7 10 13 15 19 23 25 24 27 30 38 47 47 45 38 41 49 54 55 61
94 80 73 66 24 9 7 11 12 11 10 14 22 28 20 16 20 18 15 12 14 7 5 6 9 10 15 15 12 8 6 6 6 5 4 12 14 17 19 22 25 25 28 29 34 44 50 50 45 43 42 42 49 52
59 73 57 38 5 5 5 11 7 12 10 7 23 24 19 26 24 18 13 14 6 6 6 12 17 20 19 15 11 8 8 8 8 6 8 8 13 17 20 23 26 28 29 31 32 37 44 49 46 43 39 39 43 45
65 48 21 7 5 6 5 17 8 14 9 13 22 10 12 19 14 19 11 12 7 10 14 19 21 18 16 16 13 11 11 11 10 8 9 10 12 16 18 21 24 27 30 34 35 39 39 47 48 45 42 34 37 42
41 11 8 13 10 7 13 13 11 10 8 10 10 8 14 12 16 12 10 18 14 20 24 25 26 23 19 16 16 14 11 11 10 10 11 11 12 15 17 18 21 26 27 29 32 35 39 39 39 44 42 36 34 37
8 8 9 7 11 9 9 11 7 8 7 11 14 7 9 14 10 9 12 15 25 27 28 28 26 24 21 20 18 12 12 10 8 10 11 11 11 12 15 16 18 26 28 30 33 35 37 38 39 38 44 41 28 32
6 9 11 14 10 9 8 9 14 16 10 14 11 11 12 8 10 7 11 24 27 32 34 33 30 26 23 21 20 15 12 12 11 10 10 11 13 13 15 17 18 22 28 30 32 35 35 35 38 40 37 40 36 21
6 7 9 5 5 5 6 6 9 8 11 12 9 13 9 9 11 7 7 15 24 30 32 30 28 26 25 24 20 16 14 12 10 12 10 10 12 14 15 17 18 21 20 26 30 33 35 34 35 35 36 34 37 29
3 5 9 15 8 14 7 9 10 13 8 6 14 14 7 6 5 7 9 15 26 31 31 29 27 27 26 23 19 17 15 13 14 13 12 10 12 15 15 14 16 29 21 23 29 30 34 29 33 32 34 34 33 32
6 8 9 10 11 11 8 6 6 7 2 11 10 5 6 7 5 10 19 26 31 35 35 34 31 29 27 23 20 16 14 12 11 12 11 8 5 10 13 14 15 17 19 20 28 35 37 34 35 32 33 30 31 29
7 12 7 10 7 9 6 1 5 7 7 8 14 20 20 15 14 17 24 28 31 31 31 31 30 29 27 25 23 19 16 14 12 9 9 9 7 6 9 12 15 17 18 20 21 23 32 27 28 28 31 29 30 29
5 12 5 8 4 4 5 10 9 9 9 11 8 23 20 16 17 18 19 21 24 26 28 29 27 25 24 23 21 20 17 13 14 15 16 9 7 8 10 12 14 15 18 19 21 23 28 26 28 30 33 34 34 31
10 9 5 5 6 6 8 9 6 7 6 6 7 18 26 19 10 9 12 14 23 25 26 26 25 24 22 20 18 17 23 16 12 11 11 9 7 10 12 12 13 15 17 17 18 21 25 26 27 30 32 35 34 32
5 6 6 4 6 9 13 11 8 8 7 6 9 11 14 10 9 6 16 22 22 22 27 25 25 25 25 22 22 22 20 12 9 6 4 4 5 6 8 8 12 15 15 16 18 20 23 25 26 28 30 31 29 28
Wind_Direction_500mb
287 282 284 285 281 271 266 270 276 282 286 281 275 273 258 251 283 284 239 259 253 273 283 282 279 286 284 255 280 7 269 206 256 267 291 307 293 317 284 321 297 289 271 232 250 243 268 14 337 329 318 308 311 305
285 282 283 291 295 285 269 268 271 274 281 282 274 275 274 253 280 280 271 263 268 259 269 286 277 262 251 253 290 277 318 285 327 329 342 328 312 294 319 295 289 294 332 296 290 292 306 331 321 317 306 299 300 301
274 274 276 282 285 290 289 277 271 270 274 278 273 274 283 244 269 278 275 234 274 283 301 264 267 252 220 226 226 259 308 353 7 311 331 294 274 259 290 292 315 324 317 287 310 302 324 318 312 314 311 302 297 296
273 269 280 278 278 281 285 286 273 271 273 275 274 271 279 244 254 277 272 262 246 286 283 289 267 238 228 211 215 224 252 299 312 306 276 264 269 286 287 307 306 306 315 345 296 297 336 312 314 306 309 311 300 300
268 268 265 268 275 275 282 281 274 269 274 273 271 270 278 246 251 265 273 256 220 237 303 302 293 248 240 226 225 232 241 256 280 266 260 255 278 295 274 280 274 24 350 312 280 303 299 291 305 306 307 308 304 307
262 260 264 268 271 275 282 282 272 266 271 266 263 280 274 254 237 258 293 288 210 222 278 288 335 229 195 204 229 236 236 230 209 263 253 264 268 281 295 276 104 314 331 323 283 291 289 294 306 314 318 318 316 312
262 259 266 273 272 275 280 285 270 261 263 256 254 267 234 247 233 247 222 163 186 190 251 277 249 188 197 221 211 203 187 190 209 247 250 266 277 178 259 271 336 333 325 321 311 314 313 313 315 324 323 319 317 318
259 259 272 274 271 274 277 272 258 248 250 236 242 236 235 218 231 265 261 205 172 199 238 268 276 223 187 224 181 184 173 194 214 248 255 256 158 209 245 303 332 329 329 315 320 317 304 310 332 327 324 327 323 327
261 269 270 269 270 274 272 260 228 236 226 215 197 211 219 221 239 259 227 188 186 236 249 240 253 197 192 234 218 178 181 196 200 223 218 152 166 232 355 338 327 328 317 302 313 313 320 340 331 331 337 335 331 329
265 268 270 274 271 269 262 229 224 215 199 181 184 179 209 216 187 142 139 163 200 221 226 248 246 268 224 240 253 185 195 198 202 194 126 209 164 109 10 339 330 329 319 317 321 327 332 344 345 338 339 338 336 334
273 269 271 270 269 262 237 199 205 188 171 179 181 193 195 152 158 194 183 192 197 218 218 235 234 253 213 266 282 13 339 276 248 138 228 185 166 16 348 345 338 330 326 322 324 324 342 349 344 345 341 340 342 341
265 269 272 267 260 242 193 203 193 179 177 182 170 157 145 182 182 207 212 202 201 239 178 214 198 215 106 229 241 200 248 240 269 148 195 190 51 2 349 340 341 343 338 334 335 342 345 351 351 353 348 347 351 351
265 272 271 254 238 194 187 194 194 187 171 154 146 148 167 170 196 214 204 209 196 201 180 194 174 201 161 207 223 220 232 231 231 195 93 56 28 357 347 345 343 350 344 340 342 346 346 351 355 354 353 357 359 360
264 269 257 238 200 183 190 190 189 178 158 146 161 174 218 180 225 202 241 256 147 171 168 184 163 200 158 204 257 253 255 313 282 193 95 31 7 350 347 345 345 347 351 340 341 342 346 351 355 352 359 3 1 359
267 263 231 198 179 184 184 188 184 173 153 171 189 209 210 229 235 230 220 128 143 156 155 163 164 161 139 264 292 300 246 221 253 53 47 0 354 352 347 349 350 351 346 339 341 342 339 348 358 354 354 354 5 4
256 206 196 175 178 179 178 179 176 176 184 199 223 233 230 215 235 227 192 154 170 171 167 213 136 127 173 264 243 227 245 228 80 30 332 339 344 348 346 350 354 353 345 342 338 345 346 346 357 357 359 0 358 8
188 184 177 173 173 169 174 169 163 180 204 215 224 220 239 225 214 197 197 162 172 188 210 150 180 172 129 213 246 230 288 83 158 34 339 333 339 343 343 346 349 350 350 349 348 350 350 353 358 359 2 359 357 6
194 181 174 170 166 166 161 157 162 187 211 220 220 202 209 236 232 174 156 150 189 208 183 224 99 187 185 234 202 170 155 199 106 19 341 335 338 339 341 340 345 348 347 359 358 354 356 357 2 359 360 0 360 358
179 174 175 173 169 142 135 173 177 211 217 191 202 202 198 211 227 185 168 168 216 208 165 207 235 257 173 121 119 159 184 59 83 26 326 11 347 344 343 340 341 346 349 350 5 10 8 359 359 357 358 359 2 2
172 174 176 171 162 123 127 148 171 233 198 199 198 192 194 200 184 175 178 187 192 194 194 211 294 46 109 152 161 120 103 102 67 42 26 5 0 356 358 358 352 348 346 351 358 11 7 7 5 360 2 9 4 0
158 162 168 164 145 121 144 162 191 206 181 184 191 181 190 177 180 184 182 188 204 228 145 190 154 143 134 141 142 138 105 70 87 75 9 13 14 15 12 10 10 6 1 1 1 9 13 11 7 5 5 2 8 5
150 167 161 159 109 135 183 189 208 169 174 177 171 187 191 192 191 192 158 203 223 156 186 169 161 156 153 148 143 125 122 110 99 82 27 17 25 25 24 19 16 14 10 3 3 3 6 10 16 14 10 16 10 9
156 159 139 124 133 179 199 165 182 177 173 183 183 199 195 185 175 146 204 197 187 184 169 163 161 158 155 154 147 139 130 117 110 77 51 46 45 37 34 28 21 18 14 9 3 2 2 3 11 17 20 25 21 13
135 113 153 176 194 179 167 190 188 189 191 180 186 196 179 160 153 217 226 177 172 170 166 162 162 156 156 160 161 147 136 136 120 81 59 48 44 40 38 35 26 19 16 8 10 6 1 6 8 9 20 27 33 21
135 165 164 187 202 166 178 166 186 196 189 187 189 169 151 158 189 218 225 164 169 180 172 173 174 172 167 164 152 152 140 145 129 103 63 48 42 41 40 39 29 18 17 10 10 12 7 4 7 9 8 21 27 37
170 172 198 195 168 178 178 174 190 193 176 186 201 156 147 189 207 216 214 180 179 183 180 180 178 174 167 161 154 149 144 137 131 114 78 56 49 44 35 31 23 7 17 8 4 6 9 10 7 6 9 8 22 36
168 193 185 182 165 169 170 201 175 187 191 192 162 169 186 186 216 104 130 154 181 178 177 175 174 170 162 154 150 145 135 131 135 139 115 83 59 53 47 35 20 7 17 6 8 4 3 8 9 8 7 7 5 20
248 190 182 170 178 201 204 192 195 192 203 193 163 196 208 200 89 108 149 160 160 162 161 160 161 160 159 158 152 146 140 140 127 117 107 84 71 49 44 35 13 26 24 3 12 6 4 7 7 10 9 5 3 10
201 185 170 184 198 206 227 214 210 190 215 197 187 168 103 77 93 131 142 151 153 155 154 152 150 153 149 144 142 143 141 140 146 136 137 118 96 22 26 26 25 20 18 16 359 0 10 15 9 9 10 6 3 6
166 178 203 199 205 212 200 163 109 100 108 89 110 106 85 90 111 129 146 151 155 157 158 159 156 154 152 149 142 134 128 129 136 141 140 113 78 45 32 27 23 19 16 15 13 5 4 15 5 6 5 8 7 13
161 190 230 219 235 151 158 141 131 105 76 70 91 124 132 122 99 109 142 154 157 159 158 158 158 160 157 156 153 146 131 117 107 110 108 97 80 50 36 28 18 13 13 11 11 8 9 9 4 2 359 359 359 2
198 209 225 226 174 199 188 177 145 103 115 131 120 135 136 134 119 127 85 145 167 165 165 162 160 157 156 152 148 137 146 129 116 107 98 92 70 50 28 22 15 12 12 11 10 7 6 8 5 0 354 351 351 349
167 177 212 199 180 192 199 184 153 115 110 85 55 76 76 83 85 171 158 146 153 166 163 160 156 152 144 139 138 137 142 138 117 111 92 57 35 26 28 18 27 14 12 9 11 9 7 7 1 356 352 350 349 346
Wind_Speed_850mb
44 41 42 45 49 51 62 66 60 61 57 53 49 47 40 37 33 29 16 25 14 24 48 38 27 31 26 18 13 15 12 9 9 6 5 5 9 7 12 15 20 18 9 8 10 10 12 20 30 18 28 55 56 57
46 43 37 34 38 41 46 54 61 62 57 55 45 44 43 34 33 34 23 16 16 22 31 49 47 39 34 25 18 7 9 9 11 6 6 7 6 9 17 9 8 7 4 9 11 15 43 38 38 53 52 55 56 53
52 46 43 43 38 38 36 44 48 64 61 54 44 41 41 31 37 35 32 15 15 20 36 22 13 13 15 20 19 9 6 8 6 10 11 5 9 5 8 9 16 17 27 16 22 12 31 42 62 36 52 56 58 58
55 51 52 49 44 42 42 44 43 53 61 56 40 38 36 30 43 35 35 14 16 14 11 4 13 13 13 17 20 24 16 11 14 19 12 6 7 6 9 16 21 19 21 22 31 32 61 20 54 61 63 72 75 66
56 54 48 42 44 43 45 47 44 46 52 50 34 33 30 26 40 34 33 26 22 15 11 28 41 33 25 21 20 20 22 17 13 8 8 9 10 8 12 12 6 9 5 6 10 50 42 49 68 84 80 72 77 78
58 47 53 45 46 47 46 47 44 40 45 40 29 27 24 22 40 28 10 6 25 28 10 8 11 14 22 17 15 18 19 13 9 10 12 12 15 6 7 6 11 20 35 35 16 49 68 73 61 65 73 84 81 72
50 47 49 49 47 44 41 43 42 33 42 35 26 22 26 32 44 22 10 9 20 26 7 12 9 18 26 19 15 13 14 8 13 9 12 18 7 11 3 5 29 44 47 54 42 42 47 56 70 75 73 71 74 71
44 47 48 48 45 42 43 42 35 29 41 28 17 20 18 32 32 32 32 28 25 20 9 7 10 12 26 20 18 18 15 13 14 9 8 8 5 6 7 13 44 44 53 35 37 55 58 67 66 77 71 80 66 65
50 47 48 47 47 46 46 39 28 39 35 18 18 19 24 25 15 20 12 16 30 15 6 8 6 4 15 26 7 20 16 8 12 7 9 5 4 4 17 33 40 48 40 56 60 57 54 59 71 73 83 76 67 68
41 44 44 42 44 43 43 32 34 40 28 29 26 13 10 12 17 21 18 23 23 14 15 11 28 13 8 5 8 17 16 9 7 9 10 4 4 10 24 30 39 41 41 42 50 53 62 64 67 68 80 71 65 64
41 41 41 44 43 39 32 35 45 43 40 41 18 11 13 25 27 8 9 12 16 9 14 20 32 14 11 10 9 16 5 6 5 5 4 6 6 15 31 38 37 35 35 37 42 55 56 62 65 69 87 74 67 65
41 39 36 36 38 31 40 47 58 55 38 33 20 17 21 10 7 7 8 9 11 8 18 21 21 18 1 2 5 5 6 6 4 10 5 4 8 26 34 40 41 43 40 41 42 53 55 59 56 69 75 73 69 68
37 38 35 36 33 41 43 58 54 49 42 33 9 9 10 9 8 11 12 9 7 11 17 19 11 10 9 11 10 7 9 6 7 6 3 6 21 28 34 39 46 46 38 36 40 46 49 56 55 71 72 73 72 72
38 37 34 32 38 44 53 62 51 51 39 10 13 11 10 11 11 11 16 11 11 11 21 21 18 11 8 10 4 7 4 4 3 6 5 9 21 27 33 36 41 48 39 37 38 42 46 52 56 57 74 76 78 75
30 33 28 34 47 51 66 58 47 57 12 11 11 10 15 17 19 28 20 11 12 14 14 9 5 8 3 2 6 6 4 6 2 5 4 11 18 24 33 39 44 43 40 37 37 41 46 51 56 57 62 66 82 74
26 17 37 49 54 67 63 57 53 46 8 8 10 7 11 14 18 18 17 16 16 15 10 5 5 5 2 2 5 6 5 4 5 2 7 12 17 23 29 37 44 43 38 37 36 38 41 49 51 54 57 63 69 81
35 26 52 58 68 64 61 57 31 12 11 9 11 24 15 19 22 22 19 18 16 16 9 5 9 6 5 3 4 2 2 5 2 3 6 11 18 22 27 31 38 40 41 39 40 39 37 42 45 51 62 67 61 81
53 48 63 79 78 68 59 19 12 13 11 16 10 18 22 16 19 19 12 14 13 8 4 3 5 8 7 4 4 6 6 11 9 2 6 10 16 18 21 28 31 33 41 47 42 40 34 42 44 46 53 60 56 69
54 65 80 79 74 42 13 18 11 9 16 14 18 14 24 20 12 17 15 11 5 2 3 6 4 4 6 3 9 13 10 4 4 3 5 4 14 18 20 23 26 29 31 41 45 49 38 35 37 42 52 53 59 63
55 69 77 72 64 11 9 8 14 8 10 13 20 22 24 26 21 15 14 12 11 10 8 6 1 5 4 13 15 8 8 4 4 4 7 10 13 15 19 23 25 24 27 30 38 47 47 45 38 41 49 54 55 61
94 80 73 66 24 9 7 11 12 11 10 14 22 28 20 16 20 18 15 12 14 7 5 6 9 10 15 15 12 8 6 6 6 5 4 12 14 17 19 22 25 25 28 29 34 44 50 50 45 43 42 42 49 52
59 73 57 38 5 5 5 11 7 12 10 7 23 24 19 26 24 18 13 14 6 6 6 12 17 20 19 15 11 8 8 8 8 6 8 8 13 17 20 23 26 28 29 31 32 37 44 49 46 43 39 39 43 45
65 48 21 7 5 6 5 17 8 14 9 13 22 10 12 19 14 19 11 12 7 10 14 19 21 18 16 16 13 11 11 11 10 8 9 10 12 16 18 21 24 27 30 34 35 39 39 47 48 45 42 34 37 42
41 11 8 13 10 7 13 13 11 10 8 10 10 8 14 12 16 12 10 18 14 20 24 25 26 23 19 16 16 14 11 11 10 10 11 11 12 15 17 18 21 26 27 29 32 35 39 39 39 44 42 36 34 37
8 8 9 7 11 9 9 11 7 8 7 11 14 7 9 14 10 9 12 15 25 27 28 28 26 24 21 20 18 12 12 10 8 10 11 11 11 12 15 16 18 26 28 30 33 35 37 38 39 38 44 41 28 32
6 9 11 14 10 9 8 9 14 16 10 14 11 11 12 8 10 7 11 24 27 32 34 33 30 26 23 21 20 15 12 12 11 10 10 11 13 13 15 17 18 22 28 30 32 35 35 35 38 40 37 40 36 21
6 7 9 5 5 5 6 6 9 8 11 12 9 13 9 9 11 7 7 15 24 30 32 30 28 26 25 24 20 16 14 12 10 12 10 10 12 14 15 17 18 21 20 26 30 33 35 34 35 35 36 34 37 29
3 5 9 15 8 14 7 9 10 13 8 6 14 14 7 6 5 7 9 15 26 31 31 29 27 27 26 23 19 17 15 13 14 13 12 10 12 15 15 14 16 29 21 23 29 30 34 29 33 32 34 34 33 32
6 8 9 10 11 11 8 6 6 7 2 11 10 5 6 7 5 10 19 26 31 35 35 34 31 29 27 23 20 16 14 12 11 12 11 8 5 10 13 14 15 17 19 20 28 35 37 34 35 32 33 30 31 29
7 12 7 10 7 9 6 1 5 7 7 8 14 20 20 15 14 17 24 28 31 31 31 31 30 29 27 25 23 19 16 14 12 9 9 9 7 6 9 12 15 17 18 20 21 23 32 27 28 28 31 29 30 29
5 12 5 8 4 4 5 10 9 9 9 11 8 23 20 16 17 18 19 21 24 26 28 29 27 25 24 23 21 20 17 13 14 15 16 9 7 8 10 12 14 15 18 19 21 23 28 26 28 30 33 34 34 31
10 9 5 5 6 6 8 9 6 7 6 6 7 18 26 19 10 9 12 14 23 25 26 26 25 24 22 20 18 17 23 16 12 11 11 9 7 10 12 12 13 15 17 17 18 21 25 26 27 30 32 35 34 32
5 6 6 4 6 9 13 11 8 8 7 6 9 11 14 10 9 6 16 22 22 22 27 25 25 25 25 22 22 22 20 12 9 6 4 4 5 6 8 8 12 15 15 16 18 20 23 25 26 28 30 31 29 28
Wind_Direction_850mb
287 282 284 285 281 271 266 270 276 282 286 281 275 273 258 251 283 284 239 259 253 273 283 282 279 286 284 255 280 7 269 206 256 267 291 307 293 317 284 321 297 289 271 232 250 243 268 14 337 329 318 308 311 305
285 282 283 291 295 285 269 268 271 274 281 282 274 275 274 253 280 280 271 263 268 259 269 286 277 262 251 253 290 277 318 285 327 329 342 328 312 294 319 295 289 294 332 296 290 292 306 331 321 317 306 299 300 301
274 274 276 282 285 290 289 277 271 270 274 278 273 274 283 244 269 278 275 234 274 283 301 264 267 252 220 226 226 259 308 353 7 311 331 294 274 259 290 292 315 324 317 287 310 302 324 318 312 314 311 302 297 296
273 269 280 278 278 281 285 286 273 271 273 275 274 271 279 244 254 277 272 262 246 286 283 289 267 238 228 211 215 224 252 299 312 306 276 264 269 286 287 307 306 306 315 345 296 297 336 312 314 306 309 311 300 300
268 268 265 268 275 275 282 281 274 269 274 273 271 270 278 246 251 265 273 256 220 237 303 302 293 248 240 226 225 232 241 256 280 266 260 255 278 295 274 280 274 24 350 312 280 303 299 291 305 306 307 308 304 307
262 260 264 268 271 275 282 282 272 266 271 266 263 280 274 254 237 258 293 288 210 222 278 288 335 229 195 204 229 236 236 230 209 263 253 264 268 281 295 276 104 314 331 323 283 291 289 294 306 314 318 318 316 312
262 259 266 273 272 275 280 285 270 261 263 256 254 267 234 247 233 247 222 163 186 190 251 277 249 188 197 221 211 203 187 190 209 247 250 266 277 178 259 271 336 333 325 321 311 314 313 313 315 324 323 319 317 318
259 259 272 274 271 274 277 272 258 248 250 236 242 236 235 218 231 265 261 205 172 199 238 268 276 223 187 224 181 184 173 194 214 248 255 256 158 209 245 303 332 329 329 315 320 317 304 310 332 327 324 327 323 327
261 269 270 269 270 274 272 260 228 236 226 215 197 211 219 221 239 259 227 188 186 236 249 240 253 197 192 234 218 178 181 196 200 223 218 152 166 232 355 338 327 328 317 302 313 313 320 340 331 331 337 335 331 329
265 268 270 274 271 269 262 229 224 215 199 181 184 179 209 216 187 142 139 163 200 221 226 248 246 268 224 240 253 185 195 198 202 194 126 209 164 109 10 339 330 329 319 317 321 327 332 344 345 338 339 338 336 334
273 269 271 270 269 262 237 199 205 188 171 179 181 193 195 152 158 194 183 192 197 218 218 235 234 253 213 266 282 13 339 276 248 138 228 185 166 16 348 345 338 330 326 322 324 324 342 349 344 345 341 340 342 341
265 269 272 267 260 242 193 203 193 179 177 182 170 157 145 182 182 207 212 202 201 239 178 214 198 215 106 229 241 200 248 240 269 148 195 190 51 2 349 340 341 343 338 334 335 342 345 351 351 353 348 347 351 351
265 272 271 254 238 194 187 194 194 187 171 154 146 148 167 170 196 214 204 209 196 201 180 194 174 201 161 207 223 220 232 231 231 195 93 56 28 357 347 345 343 350 344 340 342 346 346 351 355 354 353 357 359 360
264 269 257 238 200 183 190 190 189 178 158 146 161 174 218 180 225 202 241 256 147 171 168 184 163 200 158 204 257 253 255 313 282 193 95 31 7 350 347 345 345 347 351 340 341 342 346 351 355 352 359 3 1 359
267 263 231 198 179 184 184 188 184 173 153 171 189 209 210 229 235 230 220 128 143 156 155 163 164 161 139 264 292 300 246 221 253 53 47 0 354 352 347 349 350 351 346 339 341 342 339 348 358 354 354 354 5 4
256 206 196 175 178 179 178 179 176 176 184 199 223 233 230 215 235 227 192 154 170 171 167 213 136 127 173 264 243 227 245 228 80 30 332 339 344 348 346 350 354 353 345 342 338 345 346 346 357 357 359 0 358 8
188 184 177 173 173 169 174 169 163 180 204 215 224 220 239 225 214 197 197 162 172 188 210 150 180 172 129 213 246 230 288 83 158 34 339 333 339 343 343 346 349 350 350 349 348 350 350 353 358 359 2 359 357 6
194 181 174 170 166 166 161 157 162 187 211 220 220 202 209 236 232 174 156 150 189 208 183 224 99 187 185 234 202 170 155 199 106 19 341 335 338 339 341 340 345 348 347 359 358 354 356 357 2 359 360 0 360 358
179 174 175 173 169 142 135 173 177 211 217 191 202 202 198 211 227 185 168 168 216 208 165 207 235 257 173 121 119 159 184 59 83 26 326 11 347 344 343 340 341 346 349 350 5 10 8 359 359 357 358 359 2 2
172 174 176 171 162 123 127 148 171 233 198 199 198 192 194 200 184 175 178 187 192 194 194 211 294 46 109 152 161 120 103 102 67 42 26 5 0 356 358 358 352 348 346 351 358 11 7 7 5 360 2 9 4 0
158 162 168 164 145 121 144 162 191 206 181 184 191 181 190 177 180 184 182 188 204 228 145 190 154 143 134 141 142 138 105 70 87 75 9 13 14 15 12 10 10 6 1 1 1 9 13 11 7 5 5 2 8 5
150 167 161 159 109 135 183 189 208 169 174 177 171 187 191 192 191 192 158 203 223 156 186 169 161 156 153 148 143 125 122 110 99 82 27 17 25 25 24 19 16 14 10 3 3 3 6 10 16 14 10 16 10 9
156 159 139 124 133 179 199 165 182 177 173 183 183 199 195 185 175 146 204 197 187 184 169 163 161 158 155 154 147 139 130 117 110 77 51 46 45 37 34 28 21 18 14 9 3 2 2 3 11 17 20 25 21 13
135 113 153 176 194 179 167 190 188 189 191 180 186 196 179 160 153 217 226 177 172 170 166 162 162 156 156 160 161 147 136 136 120 81 59 48 44 40 38 35 26 19 16 8 10 6 1 6 8 9 20 27 33 21
135 165 164 187 202 166 178 166 186 196 189 187 189 169 151 158 189 218 225 164 169 180 172 173 174 172 167 164 152 152 140 145 129 103 63 48 42 41 40 39 29 18 17 10 10 12 7 4 7 9 8 21 27 37
170 172 198 195 168 178 178 174 190 193 176 186 201 156 147 189 207 216 214 180 179 183 180 180 178 174 167 161 154 149 144 137 131 114 78 56 49 44 35 31 23 7 17 8 4 6 9 10 7 6 9 8 22 36
168 193 185 182 165 169 170 201 175 187 191 192 162 169 186 186 216 104 130 154 181 178 177 175 174 170 162 154 150 145 135 131 135 139 115 83 59 53 47 35 20 7 17 6 8 4 3 8 9 8 7 7 5 20
248 190 182 170 178 201 204 192 195 192 203 193 163 196 208 200 89 108 149 160 160 162 161 160 161 160 159 158 152 146 140 140 127 117 107 84 71 49 44 35 13 26 24 3 12 6 4 7 7 10 9 5 3 10
201 185 170 184 198 206 227 214 210 190 215 197 187 168 103 77 93 131 142 151 153 155 154 152 150 153 149 144 142 143 141 140 146 136 137 118 96 22 26 26 25 20 18 16 359 0 10 15 9 9 10 6 3 6
166 178 203 199 205 212 200 163 109 100 108 89 110 106 85 90 111 129 146 151 155 157 158 159 156 154 152 149 142 134 128 129 136 141 140 113 78 45 32 27 23 19 16 15 13 5 4 15 5 6 5 8 7 13
161 190 230 219 235 151 158 141 131 105 76 70 91 124 132 122 99 109 142 154 157 159 158 158 158 160 157 156 153 146 131 117 107 110 108 97 80 50 36 28 18 13 13 11 11 8 9 9 4 2 359 359 359 2
198 209 225 226 174 199 188 177 145 103 115 131 120 135 136 134 119 127 85 145 167 165 165 162 160 157 156 152 148 137 146 129 116 107 98 92 70 50 28 22 15 12 12 11 10 7 6 8 5 0 354 351 351 349
167 177 212 199 180 192 199 184 153 115 110 85 55 76 76 83 85 171 158 146 153 166 163 160 156 152 144 139 138 137 142 138 117 111 92 57 35 26 28 18 27 14 12 9 11 9 7 7 1 356 352 350 349 346